#timestamp,LO_Frequency,Hit,StdDev 
1629990015.3,286046997.7,N
1629990035.2,286046997.7,N
1629990055.9,286046997.8,N
1629990075.7,286046997.4,N
1629990095.6,286046994.9,Y
1629990115.4,286046999.3,P
1629990135.3,286046999.1,P
1629990155.1,286046999.0,P
1629990156.0,286046999.0,Y
1629990175.8,286046998.4,P
1629990195.7,286047001.2,N
1629990215.5,286047000.5,N
1629990235.4,286047000.3,N
1629990255.2,286047000.8,N
1629990275.0,286047000.7,N
1629990275.9,286047000.7,N
1629990295.8,286047000.7,N
1629990315.6,286046998.7,N
1629990335.4,286046999.3,N
1629990355.3,286046998.9,N
1629990375.1,286046999.0,N
1629990395.9,286046999.2,N
1629990415.7,286046998.4,N
1629990435.5,286047001.1,N
1629990455.4,286047000.5,N
1629990475.2,286046998.6,N
1629990495.0,286046998.1,N
1629990495.9,286046998.1,N
1629990515.8,286046998.1,N
1629990535.6,286046998.3,N
1629990555.5,286046999.1,N
1629990575.3,286046998.5,N
1629990595.1,286046998.6,N
1629990615.9,286046999.2,N
1629990635.7,286046999.6,N
1629990655.5,286046996.8,Y
1629990675.4,286046999.6,P
1629990695.2,286046999.5,P
1629990715.1,286046996.5,P
1629990716.0,286046996.5,N
1629990735.8,286046999.5,N
1629990755.6,286046999.2,N
1629990775.5,286046997.8,N
1629990795.3,286046997.8,N
1629990815.2,286046995.9,Y
1629990835.0,286046997.3,P
1629990835.9,286046997.3,P
1629990855.7,286046996.9,P
1629990875.6,286046995.6,Y
1629990895.4,286046999.1,P
1629990915.3,286046999.0,N
1629990935.1,286046999.9,N
1629990936.0,286046999.9,N
1629990955.8,286047000.2,N
1629990975.7,286047001.4,N
1629990995.5,286047002.3,N
1629991015.3,286047002.6,N
1629991035.2,286047004.2,N
1629991055.0,286047001.7,N
1629991055.9,286047001.7,N
1629991075.8,286047001.4,N
1629991095.6,286047001.7,N
1629991115.4,286047004.4,N
1629991135.3,286047004.1,N
1629991155.1,286047004.4,N
1629991175.8,286047004.4,N
1629991195.7,286047001.3,N
1629991215.5,286047001.7,N
1629991235.4,286047003.0,N
1629991255.2,286047003.5,N
1629991275.0,286046999.7,N
1629991275.9,286046999.7,N
1629991295.8,286047001.5,N
1629991315.6,286047002.8,N
1629991335.4,286047002.0,N
1629991355.3,286047003.7,N
1629991375.1,286047003.5,N
1629991395.9,286047005.7,Y
1629991415.7,286047003.9,P
1629991435.5,286047001.3,N
1629991455.4,286047003.2,N
1629991475.2,286047003.4,Y
1629991495.0,286047001.5,P
1629991496.0,286047001.5,N
1629991515.8,286047002.6,P
1629991535.6,286047001.9,Y
1629991555.5,286047001.0,P
1629991575.3,286046998.2,P
1629991595.2,286046998.6,N
1629991615.9,286046997.3,N
1629991635.7,286046996.1,N
1629991655.6,286046996.2,N
1629991675.4,286046993.4,Y
1629991695.2,286046995.8,P
1629991715.1,286046993.3,P
1629991716.0,286046993.3,P
1629991735.8,286046994.5,N
1629991755.7,286046994.7,N
1629991775.5,286046994.1,Y
1629991795.3,286046998.4,P
1629991815.2,286046999.9,N
1629991835.0,286046999.8,N
1629991835.9,286046999.8,N
1629991855.8,286046999.9,N
1629991875.6,286046998.2,N
1629991895.4,286046999.9,N
1629991915.3,286047000.3,N
1629991935.1,286047000.6,N
1629991955.8,286047002.3,N
1629991975.7,286047002.6,N
1629991995.5,286047000.1,N
1629992015.3,286047000.5,N
1629992035.2,286047000.2,N
1629992055.0,286047000.5,N
1629992055.9,286047000.5,N
1629992075.8,286046998.2,N
1629992095.6,286046998.6,N
1629992115.4,286047000.6,N
1629992135.3,286047000.9,N
1629992155.1,286047000.3,N
1629992175.8,286047000.2,N
1629992195.7,286047002.3,N
1629992215.5,286046999.8,N
1629992235.4,286047000.2,N
1629992255.2,286047000.2,N
1629992275.0,286047000.9,N
1629992275.9,286047000.9,N
1629992295.8,286047001.0,N
1629992315.6,286046999.8,N
1629992335.4,286047000.3,N
1629992355.3,286047000.0,N
1629992375.1,286046999.7,N
1629992395.9,286047001.4,N
1629992415.7,286047000.0,N
1629992435.5,286046999.8,N
1629992455.4,286047001.3,N
1629992475.2,286047002.9,Y
1629992495.1,286047005.4,P
1629992496.0,286047005.4,N
1629992515.8,286047006.0,N
1629992535.6,286047005.8,N
1629992555.5,286047004.7,N
1629992575.3,286047004.9,N
1629992595.1,286047005.1,N
1629992615.9,286047004.6,N
1629992635.7,286047005.2,Y
1629992655.6,286046999.8,P
1629992675.4,286047002.3,N
1629992695.2,286047002.7,N
1629992715.1,286047002.4,N
1629992716.0,286047002.4,N
1629992735.8,286047002.1,N
1629992755.7,286047004.4,Y
1629992775.5,286047002.2,P
1629992795.3,286047001.5,P
1629992815.2,286047002.5,P
1629992835.9,286047002.6,Y
1629992855.7,286046998.5,P
1629992875.6,286046998.8,N
1629992895.4,286046998.1,N
1629992915.2,286046998.6,N
1629992935.1,286046998.3,N
1629992936.0,286046998.3,N
1629992955.8,286047000.9,N
1629992975.7,286047000.5,N
1629992995.5,286046998.1,N
1629993015.3,286046999.2,N
1629993035.2,286046999.3,N
1629993055.0,286046996.6,N
1629993055.9,286046996.6,N
1629993075.8,286046996.8,N
1629993095.6,286046997.4,N
1629993115.4,286046996.7,N
1629993135.3,286046994.9,Y
1629993155.1,286046997.4,P
1629993175.8,286046997.5,P
1629993195.7,286046997.8,P
1629993215.5,286046997.6,Y
1629993235.4,286047000.8,P
1629993255.2,286047000.9,N
1629993275.0,286047001.1,N
1629993275.9,286047001.1,N
1629993295.8,286046998.8,N
1629993315.6,286046998.6,N
1629993335.4,286047000.7,N
1629993355.3,286047000.8,N
1629993375.1,286047001.0,N
1629993395.9,286046999.9,N
1629993415.7,286047001.0,N
1629993435.5,286046998.6,N
1629993455.4,286047001.2,N
1629993475.2,286047000.7,N
1629993495.1,286046998.2,N
1629993496.0,286046998.2,N
1629993515.8,286047000.7,N
1629993535.6,286047000.8,N
1629993555.5,286046999.1,N
1629993575.3,286046997.8,N
1629993595.1,286046995.6,Y
